Showing default

T.MICROSAT-2, 68433

Orbit data source: Space-Track

T.MICROSAT-2, 68433 is a Taiwanese payload satellite in SSO that was launched on Mon, 30 Mar 2026 UTC via an FALCON 9 launch vehicle from the Air Force Western Test Range (AFWTR). Payload-class satellites include a variety of spacecraft equipped with specific instruments for various scientific and technological missions. These include communications satellites like Starlink; space stations such as the ISS; scientific satellites like the Hubble; Earth observation satellites from companies like Planet Labs, Umbra, and HawkEye 360; GPS; miniature CubeSats for education and research; and military/defense satellites.

Loading next visibility...
Identifier
68433, 2026-067T
Orbit
SSO
Country
Flag of TWTW / TWN
Related business
Manufacturer
TRON
Mission
Operational spacecraft
Bus & Motor
CUBESAT 6U, Unknown motor
Mass
~10 kg wet, ~10 kg dry
Launch date (UTC)
2026-03-30 (2 months ago)
Launch vehicle
FALCON 9
Launch site
Air Force Western Test Range (AFWTR)
Object type
Payload
Rocket body
Debris
Shape & HBR
Unknown shape, 14.5 m
Radar Cross Section
Medium (>0.1 m² and <1 m²)

Expand to show TLE details & history
Last TLE update: 4 days ago

TLE from 4 days ago
0 T.MICROSAT-2
1 68433U 26067T   26153.81600093  .00005625  00000-0  28584-3 0  9997
2 68433  97.4569 112.4128 0007687 106.0775 254.1306 15.17246393  9752
Epoch: 2026-06-02T19:35Z
TLE epoch observation values (Epoch: 2026-06-02T19:35:02.480Z)
Latitude
0.00004°
Longitude
-72.63109°
Altitude
518.705 km
Speed
7.603 km/s
True Right ascension
07h 29m 39s
True Declination
0° 00' 00"
Sunlit
Object was in daylight at epoch
Visualization orbit readout
Latitude
Unknown
Longitude
Unknown
Altitude
Unknown
Speed
Unknown
Apparent Right ascension
Unknown
Apparent Declination
Unknown
Sunlit
N/A
Visualization observer readout
Local Sidereal Time
03:12:32
Azimuth
Unknown
Elevation
Unknown
Doppler factor
Unknown
Orbital elements
Apogee altitude
516.435 km
Perigee altitude
505.843 km
Semi-major axis
6,889.276 km
Eccentricity
0.00077
Inclination
97.4569°
RAAN
112.4128°
Arg. of periapsis
106.0775°
True anomaly
254.04589°
Mean anomaly
254.1306°
Eccentric anomaly
254.08824°
Mean motion
3.79562 °/min
Orbital period
94.85 mins
BSTAR
0.00028584
Loading maneuver chart data...
Computing Atmospheric mass density...
Loading historical data...
Loading historical data...
Loading historical data...
Loading historical data...
Loading historical data...
Loading historical data...
Loading historical data...

Documentation

Showing up to 5 results
|